TimeEDT,TemperatureF,Dew PointF,Humidity,Sea Level PressureIn,VisibilityMPH,Wind Direction,Wind SpeedMPH,Gust SpeedMPH,PrecipitationIn,Events,Conditions,WindDirDegrees,DateUTC
12:54 AM,66.9,64.9,93,30.17,6.0,Calm,Calm,-,N/A,,Overcast,0,2013-06-20 04:54:00
1:54 AM,66.9,64.0,90,30.17,6.0,Calm,Calm,-,N/A,,Overcast,0,2013-06-20 05:54:00
2:54 AM,66.0,64.0,93,30.17,5.0,Calm,Calm,-,N/A,,Overcast,0,2013-06-20 06:54:00
3:23 AM,66.2,64.4,94,30.20,7.0,Calm,Calm,-,N/A,,Overcast,0,2013-06-20 07:23:00
3:54 AM,66.9,64.0,90,30.18,6.0,SE,4.6,-,N/A,,Overcast,130,2013-06-20 07:54:00
4:54 AM,66.0,64.0,93,30.19,5.0,Calm,Calm,-,N/A,,Overcast,0,2013-06-20 08:54:00
5:54 AM,66.0,64.0,93,30.20,6.0,ESE,4.6,-,N/A,,Mostly Cloudy,110,2013-06-20 09:54:00
6:36 AM,66.2,64.4,94,30.25,4.0,ESE,4.6,-,N/A,,Overcast,120,2013-06-20 10:36:00
6:54 AM,66.0,64.0,93,30.23,5.0,SE,5.8,-,N/A,,Overcast,130,2013-06-20 10:54:00
7:26 AM,66.2,64.4,94,30.26,5.0,ESE,5.8,-,N/A,,Overcast,110,2013-06-20 11:26:00
7:54 AM,66.9,64.0,90,30.25,5.0,ESE,4.6,-,N/A,,Overcast,110,2013-06-20 11:54:00
8:54 AM,66.9,64.0,90,30.26,5.0,ESE,8.1,-,N/A,,Overcast,120,2013-06-20 12:54:00
9:54 AM,69.1,64.0,84,30.27,7.0,ESE,6.9,-,N/A,,Overcast,110,2013-06-20 13:54:00
10:54 AM,69.1,64.0,84,30.27,8.0,SE,9.2,-,N/A,,Overcast,130,2013-06-20 14:54:00
11:54 AM,73.0,64.0,73,30.27,10.0,ESE,10.4,-,N/A,,Overcast,120,2013-06-20 15:54:00
12:54 PM,73.9,64.0,71,30.27,10.0,SE,8.1,-,N/A,,Scattered Clouds,140,2013-06-20 16:54:00
1:54 PM,73.9,63.0,68,30.26,10.0,SSE,8.1,-,N/A,,Mostly Cloudy,160,2013-06-20 17:54:00
2:54 PM,77.0,64.0,64,30.25,10.0,SE,11.5,-,N/A,,Mostly Cloudy,130,2013-06-20 18:54:00
3:54 PM,77.0,64.0,64,30.23,10.0,SE,11.5,-,N/A,,Scattered Clouds,130,2013-06-20 19:54:00
4:54 PM,75.9,63.0,64,30.22,10.0,SE,10.4,-,N/A,,Mostly Cloudy,140,2013-06-20 20:54:00
5:54 PM,75.9,63.0,64,30.22,10.0,SE,8.1,-,N/A,,Partly Cloudy,140,2013-06-20 21:54:00
6:54 PM,75.9,64.0,67,30.22,10.0,SSE,8.1,-,N/A,,Partly Cloudy,150,2013-06-20 22:54:00
7:54 PM,75.0,62.1,64,30.23,10.0,ESE,9.2,-,N/A,,Partly Cloudy,120,2013-06-20 23:54:00
8:54 PM,72.0,62.1,71,30.23,10.0,SE,6.9,-,N/A,,Partly Cloudy,130,2013-06-21 00:54:00
9:54 PM,72.0,64.0,76,30.25,10.0,SE,5.8,-,N/A,,Mostly Cloudy,140,2013-06-21 01:54:00
10:54 PM,72.0,64.0,76,30.26,10.0,ESE,4.6,-,N/A,,Overcast,120,2013-06-21 02:54:00
11:54 PM,71.1,63.0,75,30.26,10.0,ESE,3.5,-,N/A,,Overcast,110,2013-06-21 03:54:00